Weather in Myrtle Beach

United States     33°42′00″N   78°55′19″W
temp.,
°C
wind,
m/s
gust,
m/s
humid.,
%
clouds,
%
prec.,
mm/h
press.,
hPa
HPBL,
m
7 may, fri
fri723:00+16e25953 0.4 101495
02:00+15e23950 0.9 101269
05:00+14sw11931 0.7 101019
08:00+15wsw38830 0.9 1011271
11:00+20wnw710480 0.0 10111249
14:00+24wnw711305 0.0 10103109
17:00+23wnw7102811 0.0 10112901
20:00+18nnw511340 0.0 1014912
8 may, sat
sat823:00+13w24420 0.0 101682
02:00+11wnw310470 0.0 1016274
05:00+10w25560 0.0 1017101
08:00+13w410540 0.0 1019298
11:00+21wnw69370 0.0 10191705
14:00+24wnw6103122 0.0 10172699
17:00+25wnw7103223 0.0 10162860
20:00+19nw37515 0.0 1018250
9 may, sun
sun923:00+16nw125599 0.0 102023
02:00+15n11645 0.0 102011
05:00+15se11685 0.0 102012
08:00+19ssw2463100 0.0 1021214
11:00+25ssw464118 0.0 10211334
14:00+28s793820 0.0 10191935
17:00+27ssw71044100 0.0 10181710
20:00+22ssw61362100 0.0 1018863
10 may, mon
mon1023:00+22ssw61373100 0.0 1018705
02:00+22ssw614755 0.0 1016784
05:00+22ssw6147854 0.0 1015799
08:00+23sw4127761 0.0 1017822
11:00+28wsw61149100 0.1 10161852
14:00+30wsw61039100 0.1 10142716
17:00+28w4846100 0.0 10131083
20:00+22ssw2778100 0.6 1015287
11 may, tue
tue1123:00+21sw2776100 0.0 1015241
02:00+20wsw310810 0.0 1015426
05:00+18wnw289636 0.0 1015340
08:00+19n4587100 0.0 1017478
11:00+16nne6871100 0.1 1020572
14:00+15nne5762100 0.1 1022682
17:00+17nne455299 0.0 1022878
20:00+15ne2359100 0.0 1023119